Paynesville, MN

8:58 AM CST on February 06, 2016 (GMT -0600)
Paynesville

Weather History for KPEX - November, 2012

Change the Weather History Date:

Sunday, November 11, 2012

  Actual Average (KLJF) Record (KLJF)
Temperature  
Mean Temperature 30 °F -  
Max Temperature 42 °F 39 °F 64 °F (1967)
Min Temperature 17 °F 24 °F -1 °F (1986)
Degree Days  
Heating Degree Days 36    
Moisture  
Dew Point 21 °F    
Average Humidity 83    
Maximum Humidity 99    
Minimum Humidity 70    
Precipitation  
Precipitation 0.00 in - - ()
Sea Level Pressure  
Sea Level Pressure 29.78 in    
Wind  
Wind Speed 16 mph (West)    
Max Wind Speed 21 mph    
Max Gust Speed 26 mph    
Visibility 10 miles    
Events Snow    
Averages and records for this station are not official NWS values.
T = Trace of Precipitation, MM = Missing Value Source: NWS Daily Summary

Daily Weather History Graph

Daily Weather History Graph

Search for Another Location

Airport or City:

Trip Planner

Search our weather history database for the weather conditions in past years. The results will help you decide how hot, cold, wet, or windy it might be!

Date:

Astronomy

Nov. 11, 2012 Rise Set
Actual Time 7:12 AM CST 4:52 PM CST
Civil Twilight 6:41 AM CST 5:24 PM CST
Nautical Twilight 6:05 AM CST 6:00 PM CST
Astronomical Twilight 5:30 AM CST 6:34 PM CST
Moon 4:21 AM CST (11/11) 3:21 PM CST (11/11)
Length of Visible Light 10h 43m
Length of Day
9h 39m
Waning Crescent, 7% of the Moon is Illuminated
Nov 11
Waning Crescent
Nov 13
New
Nov 20
First Quarter
Nov 28
Full
Dec 6
Last Quarter

Hourly Weather History & Observations

Time (CST) Temp. Windchill Dew Point Humidity Pressure Visibility Wind Dir Wind Speed Gust Speed Precip Events Conditions
12:13 AM 42.4 °F 34.1 °F 42.3 °F 99% 29.52 in 1.5 mi West 18.4 mph 25.3 mph N/A   Overcast
12:33 AM 39.9 °F 31.1 °F 39.6 °F 99% 29.54 in 7.0 mi West 17.3 mph 24.2 mph N/A   Overcast
12:54 AM 38.8 °F 31.6 °F 38.5 °F 99% 29.55 in 7.0 mi West 11.5 mph - N/A   Overcast
1:13 AM 37.8 °F 29.0 °F 37.4 °F 99% 29.57 in 5.0 mi West 15.0 mph - N/A   Overcast
1:33 AM 36.0 °F 26.3 °F 35.6 °F 99% 29.59 in 10.0 mi West 16.1 mph 23.0 mph N/A   Overcast
1:54 AM 35.1 °F 24.5 °F 34.7 °F 99% 29.59 in 7.0 mi West 18.4 mph 24.2 mph N/A   Overcast
2:13 AM 34.0 °F 22.4 °F 33.4 °F 98% 29.60 in 10.0 mi West 20.7 mph 25.3 mph N/A   Overcast
2:34 AM 33.8 °F 23.2 °F 33.1 °F 97% 29.61 in 10.0 mi WNW 17.3 mph 21.9 mph N/A   Overcast
2:53 AM 33.3 °F 24.1 °F 32.5 °F 97% 29.61 in 10.0 mi West 12.7 mph - N/A   Overcast
3:13 AM 32.9 °F 21.6 °F 32.4 °F 98% 29.62 in 10.0 mi West 18.4 mph 23.0 mph N/A   Overcast
3:33 AM 32.5 °F 21.9 °F 32.0 °F 98% 29.64 in 10.0 mi West 16.1 mph 23.0 mph N/A   Overcast
3:53 AM 32.0 °F 20.5 °F 31.8 °F 99% 29.65 in 10.0 mi West 18.4 mph 21.9 mph N/A   Overcast
4:13 AM 31.8 °F 20.6 °F 31.1 °F 97% 29.67 in 10.0 mi West 17.3 mph 24.2 mph N/A   Overcast
4:33 AM 30.9 °F 19.8 °F 30.2 °F 97% 29.68 in 10.0 mi West 16.1 mph 25.3 mph N/A   Overcast
4:53 AM 30.2 °F 19.3 °F 29.1 °F 96% 29.70 in 10.0 mi West 15.0 mph 23.0 mph N/A   Overcast
5:33 AM 29.3 °F 17.3 °F 26.8 °F 90% 29.71 in 10.0 mi West 17.3 mph 20.7 mph N/A   Overcast
5:53 AM 29.1 °F 17.5 °F 26.6 °F 90% 29.72 in 10.0 mi West 16.1 mph 19.6 mph N/A   Overcast
6:14 AM 28.4 °F 16.2 °F 25.7 °F 90% 29.72 in 10.0 mi WNW 17.3 mph 23.0 mph N/A   Overcast
6:33 AM 28.4 °F 17.0 °F 25.9 °F 90% 29.73 in 10.0 mi West 15.0 mph - N/A   Overcast
6:53 AM 28.2 °F 16.8 °F 25.0 °F 88% 29.73 in 10.0 mi West 15.0 mph 19.6 mph N/A   Overcast
7:33 AM 27.5 °F 15.4 °F 23.9 °F 86% 29.74 in 10.0 mi WNW 16.1 mph 24.2 mph N/A   Overcast
7:53 AM 27.0 °F 13.9 °F 23.0 °F 85% 29.75 in 10.0 mi WNW 18.4 mph 25.3 mph N/A   Overcast
8:13 AM 27.0 °F 15.2 °F 23.2 °F 86% 29.77 in 10.0 mi WNW 15.0 mph 20.7 mph N/A   Overcast
8:33 AM 26.6 °F 16.2 °F 22.6 °F 85% 29.78 in 10.0 mi WNW 11.5 mph 20.7 mph N/A   Overcast
8:53 AM 25.7 °F 13.1 °F 22.3 °F 87% 29.78 in 10.0 mi West 16.1 mph - N/A   Overcast
9:13 AM 25.7 °F 13.1 °F 21.2 °F 83% 29.79 in 10.0 mi WNW 16.1 mph - N/A   Overcast
9:33 AM 25.7 °F 13.5 °F 21.9 °F 86% 29.80 in 10.0 mi WNW 15.0 mph 19.6 mph N/A   Overcast
9:54 AM 25.5 °F 13.3 °F 21.7 °F 86% 29.78 in 10.0 mi West 15.0 mph 20.7 mph N/A   Overcast
10:13 AM 24.8 °F 12.9 °F 20.8 °F 85% 29.79 in 10.0 mi West 13.8 mph 19.6 mph N/A   Overcast
10:33 AM 24.8 °F 11.9 °F 20.5 °F 84% 29.78 in 10.0 mi West 16.1 mph 20.7 mph N/A   Overcast
10:54 AM 24.8 °F 14.6 °F 20.3 °F 83% 29.80 in 10.0 mi West 10.4 mph - N/A   Overcast
11:33 AM 25.0 °F 11.7 °F 20.7 °F 84% 29.79 in 10.0 mi West 17.3 mph 24.2 mph N/A   Overcast
12:13 PM 24.6 °F 12.7 °F 20.1 °F 83% 29.80 in 10.0 mi WNW 13.8 mph 17.3 mph N/A   Overcast
12:33 PM 24.6 °F 11.7 °F 19.9 °F 82% 29.79 in 10.0 mi WNW 16.1 mph 23.0 mph N/A   Overcast
12:53 PM 24.6 °F 12.2 °F 19.8 °F 82% 29.79 in 10.0 mi West 15.0 mph 20.7 mph N/A   Overcast
1:14 PM 24.4 °F 10.6 °F 19.2 °F 81% 29.81 in 10.0 mi West 18.4 mph 23.0 mph N/A   Overcast
1:34 PM 23.9 °F 12.3 °F 18.5 °F 80% 29.81 in 10.0 mi West 12.7 mph 23.0 mph N/A   Overcast
1:53 PM 24.3 °F 10.8 °F 18.5 °F 79% 29.80 in 10.0 mi West 17.3 mph 20.7 mph N/A   Overcast
2:13 PM 23.9 °F 9.9 °F 17.8 °F 77% 29.79 in 10.0 mi West 18.4 mph 24.2 mph N/A   Mostly Cloudy
2:34 PM 25.3 °F 11.0 °F 19.0 °F 77% 29.80 in 10.0 mi West 20.7 mph 24.2 mph N/A   Overcast
2:53 PM 25.5 °F 13.3 °F 18.5 °F 75% 29.80 in 10.0 mi West 15.0 mph 25.3 mph N/A   Overcast
3:13 PM 25.0 °F 12.2 °F 18.3 °F 76% 29.81 in 10.0 mi West 16.1 mph 25.3 mph N/A   Overcast
3:33 PM 24.3 °F 11.7 °F 16.7 °F 73% 29.82 in 10.0 mi WNW 15.0 mph 26.5 mph N/A   Overcast
3:53 PM 23.9 °F 9.9 °F 16.9 °F 75% 29.82 in 10.0 mi West 18.4 mph - N/A   Overcast
4:13 PM 23.9 °F 11.2 °F 16.7 °F 74% 29.83 in 10.0 mi West 15.0 mph - N/A   Overcast
4:33 PM 23.7 °F 11.5 °F 16.0 °F 72% 29.84 in 10.0 mi West 13.8 mph 25.3 mph N/A   Overcast
4:53 PM 23.2 °F 9.4 °F 15.1 °F 71% 29.84 in 10.0 mi West 17.3 mph 24.2 mph N/A   Overcast
5:13 PM 23.2 °F 9.8 °F 15.8 °F 73% 29.85 in 10.0 mi West 16.1 mph 21.9 mph N/A Snow Light Snow
5:33 PM 23.0 °F 10.1 °F 16.0 °F 74% 29.86 in 10.0 mi West 15.0 mph 20.7 mph N/A Snow Light Snow
5:53 PM 22.6 °F 9.2 °F 15.6 °F 74% 29.86 in 10.0 mi West 16.1 mph - N/A   Overcast
6:14 PM 22.1 °F 8.0 °F 14.7 °F 73% 29.87 in 10.0 mi West 17.3 mph 26.5 mph N/A   Overcast
6:33 PM 21.9 °F 7.3 °F 14.9 °F 74% 29.88 in 10.0 mi West 18.4 mph - N/A Snow Light Snow
6:53 PM 21.4 °F 6.2 °F 14.5 °F 75% 29.89 in 10.0 mi West 19.6 mph 25.3 mph N/A   Overcast
7:13 PM 21.0 °F 6.2 °F 14.0 °F 74% 29.89 in 7.0 mi West 18.4 mph 26.5 mph N/A Snow Light Snow
7:33 PM 20.7 °F 7.1 °F 13.3 °F 73% 29.89 in 10.0 mi West 15.0 mph - N/A Snow Light Snow
7:53 PM 20.3 °F 5.7 °F 13.1 °F 74% 29.89 in 10.0 mi West 17.3 mph 25.3 mph N/A   Overcast
8:13 PM 20.1 °F 5.0 °F 12.4 °F 72% 29.89 in 10.0 mi West 18.4 mph 25.3 mph N/A Snow Light Snow
8:33 PM 19.9 °F 4.8 °F 13.3 °F 75% 29.90 in 10.0 mi West 18.4 mph 23.0 mph N/A Snow Light Snow
8:53 PM 19.8 °F 3.7 °F 12.0 °F 72% 29.90 in 10.0 mi West 20.7 mph - N/A Snow Light Snow
9:13 PM 19.8 °F 4.5 °F 12.4 °F 73% 29.91 in 7.0 mi West 18.4 mph 24.2 mph N/A Snow Light Snow
9:33 PM 19.6 °F 3.9 °F 11.3 °F 70% 29.91 in 10.0 mi WSW 19.6 mph - N/A Snow Light Snow
9:54 PM 19.6 °F 6.8 °F 11.7 °F 71% 29.91 in 10.0 mi West 12.7 mph 16.1 mph N/A Snow Light Snow
10:13 PM 19.4 °F 5.5 °F 11.7 °F 72% 29.91 in 10.0 mi WSW 15.0 mph 18.4 mph N/A   Overcast
10:33 PM 18.3 °F 4.6 °F 11.1 °F 73% 29.91 in 10.0 mi West 13.8 mph - N/A   Mostly Cloudy
10:52 PM 17.6 °F 4.3 °F 10.8 °F 75% 29.91 in 10.0 mi West 12.7 mph - N/A   Clear
11:13 PM 17.4 °F 5.4 °F 10.8 °F 75% 29.91 in 10.0 mi WSW 10.4 mph - N/A   Clear
11:33 PM 17.6 °F 5.7 °F 11.3 °F 76% 29.91 in 10.0 mi WSW 10.4 mph - N/A   Scattered Clouds
11:53 PM 17.8 °F 4.0 °F 11.3 °F 76% 29.91 in 10.0 mi WSW 13.8 mph - N/A   Mostly Cloudy